Weather History for Paris, IL

Change the Weather History Date:

Saturday, January 11, 2014

  Actual Average (KHUF) Record (KHUF)
Temperature  
Mean Temperature 37 °F 28 °F  
Max Temperature 42 °F 36 °F 62 °F (1975)
Min Temperature 32 °F 20 °F -17 °F (1977)
Degree Days  
Heating Degree Days 28 37  
Month to date heating degree days 407  
Since 1 July heating degree days 2518  
Cooling Degree Days 0 0  
Month to date cooling degree days 0  
Year to date cooling degree days 0  
Moisture  
Dew Point 35 °F    
Average Humidity 94    
Maximum Humidity 100    
Minimum Humidity 84    
Precipitation  
Precipitation 0.02 in 0.09 in 1.04 in (1975)
Month to date precipitation 1.06  
Year to date precipitation 1.06  
Sea Level Pressure  
Sea Level Pressure 29.65 in    
Wind  
Wind Speed 12 mph (WSW)    
Max Wind Speed 21 mph    
Max Gust Speed 26 mph    
Visibility 6 miles    
Events Fog , Rain    
T = Trace of Precipitation, MM = Missing Value Source: NWS Daily Summary

Daily Weather History Graph

Daily Weather History Graph

Search for Another Location

Airport:

Trip Planner

Search our weather history database for the weather conditions in past years. The results will help you decide how hot, cold, wet, or windy it might be!

Date:

Astronomy

Jan. 11, 2014 Rise Set
Actual Time 7:11 AM CST 4:46 PM CST
Civil Twilight 6:41 AM CST 5:16 PM CST
Nautical Twilight 6:07 AM CST 5:49 PM CST
Astronomical Twilight 5:35 AM CST 6:22 PM CST
Moon 1:30 PM CST (1/11) 3:15 AM CST (1/11)
Length of Visible Light 10h 35m
Length of Day
9h 35m
Waxing Gibbous, 83% of the Moon is Illuminated
Jan 11
Waxing Gibbous
Jan 15
Full
Jan 23
Last Quarter
Jan 30
New
Feb 6
First Quarter

Hourly Weather History & Observations

Time (CST) Temp. Windchill Dew Point Humidity Pressure Visibility Wind Dir Wind Speed Gust Speed Precip Events Conditions
12:15 AM 41.5 °F 34.2 °F 41.2 °F 99% 29.59 in 1.0 mi South 13.8 mph 20.7 mph N/A   Light Drizzle
12:35 AM 41.9 °F 34.0 °F 41.5 °F 99% 29.57 in 1.2 mi SSW 16.1 mph - N/A   Light Drizzle
12:55 AM 42.1 °F 35.2 °F 41.9 °F 99% 29.56 in 0.5 mi South 12.7 mph - N/A Fog Fog
1:15 AM 41.5 °F 35.4 °F 41.2 °F 99% 29.54 in 0.2 mi South 10.4 mph - N/A Fog Fog
1:35 AM 41.4 °F 35.7 °F 41.0 °F 99% 29.54 in 0.2 mi South 9.2 mph - N/A   Light Drizzle
1:55 AM 41.4 °F 36.2 °F 41.0 °F 99% 29.52 in 0.5 mi South 8.1 mph - N/A Rain Light Rain
2:15 AM 40.3 °F 35.5 °F 40.1 °F 99% 29.52 in 0.2 mi South 6.9 mph - N/A Rain Light Rain
2:35 AM 40.8 °F 35.0 °F 40.5 °F 99% 29.51 in 1.2 mi South 9.2 mph - N/A   Light Drizzle
2:55 AM 41.0 °F 34.7 °F 40.5 °F 98% 29.51 in 0.8 mi South 10.4 mph - N/A   Overcast
3:15 AM 41.7 °F 34.8 °F 41.4 °F 99% 29.51 in 0.8 mi South 12.7 mph - N/A   Overcast
3:35 AM 42.1 °F 35.7 °F 41.9 °F 99% 29.50 in 1.0 mi South 11.5 mph - N/A   Overcast
3:50 AM 42.6 °F 35.6 °F 42.4 °F 99% 29.50 in 2.5 mi SSW 13.8 mph - N/A   Overcast
4:15 AM 42.4 °F 35.7 °F 42.3 °F 99% 29.50 in 2.0 mi SSW 12.7 mph - N/A   Overcast
4:35 AM 42.3 °F 35.1 °F 42.1 °F 99% 29.51 in 2.0 mi SW 13.8 mph - N/A   Overcast
4:55 AM 41.5 °F 34.6 °F 41.4 °F 99% 29.51 in 1.0 mi SW 12.7 mph - N/A   Overcast
5:15 AM 41.0 °F 33.9 °F 40.6 °F 99% 29.51 in 1.5 mi SW 12.7 mph - N/A   Overcast
5:35 AM 40.8 °F 33.7 °F 40.6 °F 99% 29.51 in 2.5 mi WSW 12.7 mph 16.1 mph N/A   Overcast
5:55 AM 40.3 °F 33.0 °F 40.1 °F 99% 29.52 in 1.2 mi WSW 12.7 mph - N/A   Overcast
6:15 AM 39.9 °F 32.5 °F 39.7 °F 99% 29.52 in 4.0 mi WSW 12.7 mph - N/A   Overcast
6:35 AM 39.2 °F 31.6 °F 39.0 °F 99% 29.53 in 7.0 mi West 12.7 mph - N/A   Overcast
6:55 AM 38.7 °F 30.5 °F 38.5 °F 99% 29.54 in 7.0 mi West 13.8 mph 18.4 mph N/A   Overcast
7:15 AM 38.1 °F 29.8 °F 37.8 °F 99% 29.54 in 7.0 mi West 13.8 mph 19.6 mph N/A   Overcast
7:35 AM 37.4 °F 29.3 °F 36.9 °F 98% 29.55 in 4.0 mi West 12.7 mph - N/A   Overcast
7:55 AM 37.0 °F 31.0 °F 36.7 °F 99% 29.57 in 2.5 mi West 8.1 mph - N/A   Overcast
8:15 AM 36.7 °F 26.6 °F 36.5 °F 99% 29.58 in 2.5 mi West 18.4 mph 21.9 mph N/A   Overcast
8:35 AM 36.0 °F 28.0 °F 35.8 °F 99% 29.59 in 3.0 mi West 11.5 mph - N/A   Overcast
8:55 AM 35.6 °F 24.5 °F 35.6 °F 100% 29.60 in 4.0 mi West 20.7 mph 25.3 mph N/A   Overcast
9:15 AM 35.2 °F 25.4 °F 34.9 °F 99% 29.61 in 2.5 mi West 16.1 mph 23.0 mph N/A   Overcast
9:35 AM 35.2 °F 25.8 °F 34.9 °F 99% 29.62 in 4.0 mi West 15.0 mph - N/A   Overcast
9:55 AM 35.8 °F 26.9 °F 35.6 °F 99% 29.62 in 5.0 mi West 13.8 mph 18.4 mph N/A   Overcast
10:15 AM 35.6 °F 25.2 °F 35.1 °F 98% 29.63 in 10.0 mi West 18.4 mph - N/A   Overcast
10:35 AM 35.8 °F 26.1 °F 34.3 °F 94% 29.63 in 10.0 mi West 16.1 mph 25.3 mph N/A   Overcast
10:55 AM 35.6 °F 25.9 °F 32.9 °F 90% 29.64 in 10.0 mi West 16.1 mph - N/A   Overcast
11:15 AM 35.1 °F 24.8 °F 32.9 °F 92% 29.64 in 5.0 mi West 17.3 mph 26.5 mph N/A   Overcast
11:35 AM 34.9 °F 24.6 °F 32.9 °F 92% 29.64 in 5.0 mi West 17.3 mph 23.0 mph N/A   Overcast
11:55 AM 35.1 °F 25.2 °F 32.9 °F 92% 29.64 in 5.0 mi West 16.1 mph 24.2 mph N/A   Overcast
12:15 PM 35.2 °F 25.8 °F 32.9 °F 91% 29.64 in 5.0 mi West 15.0 mph - N/A   Overcast
12:35 PM 35.1 °F 25.9 °F 32.9 °F 92% 29.64 in 5.0 mi West 13.8 mph 19.6 mph N/A   Overcast
12:55 PM 35.2 °F 25.8 °F 32.9 °F 91% 29.65 in 5.0 mi West 15.0 mph - N/A   Overcast
1:15 PM 35.6 °F 26.6 °F 33.1 °F 91% 29.64 in 5.0 mi West 13.8 mph 17.3 mph N/A   Overcast
1:35 PM 35.8 °F 27.8 °F 33.1 °F 90% 29.64 in 7.0 mi West 11.5 mph 19.6 mph N/A   Overcast
1:55 PM 36.5 °F 28.2 °F 33.8 °F 90% 29.65 in 7.0 mi WSW 12.7 mph 18.4 mph N/A   Overcast
2:15 PM 36.7 °F 27.6 °F 33.4 °F 88% 29.65 in 7.0 mi WSW 15.0 mph - N/A   Overcast
2:35 PM 36.9 °F 28.2 °F 33.3 °F 87% 29.66 in 7.0 mi West 13.8 mph 19.6 mph N/A   Overcast
2:55 PM 37.4 °F 29.3 °F 33.6 °F 86% 29.67 in 7.0 mi WSW 12.7 mph 18.4 mph N/A   Overcast
3:15 PM 37.2 °F 30.0 °F 33.1 °F 85% 29.67 in 7.0 mi WSW 10.4 mph - N/A   Mostly Cloudy
3:35 PM 38.3 °F 30.5 °F 33.8 °F 84% 29.68 in 7.0 mi WSW 12.7 mph 17.3 mph N/A   Scattered Clouds
3:55 PM 37.4 °F 30.8 °F 33.8 °F 87% 29.69 in 7.0 mi WSW 9.2 mph - N/A   Scattered Clouds
4:10 PM 36.9 °F 30.1 °F 33.6 °F 88% 29.69 in 7.0 mi SW 9.2 mph - N/A   Scattered Clouds
4:35 PM 35.4 °F 28.4 °F 32.9 °F 91% 29.70 in 5.0 mi SW 9.2 mph - N/A   Clear
4:55 PM 34.0 °F 28.0 °F 32.0 °F 92% 29.71 in 5.0 mi SW 6.9 mph - N/A   Clear
5:15 PM 34.2 °F 27.5 °F 32.2 °F 92% 29.72 in 7.0 mi SW 8.1 mph - N/A   Clear
5:35 PM 33.8 °F 27.0 °F 32.0 °F 93% 29.73 in 7.0 mi SW 8.1 mph - N/A   Clear
5:55 PM 33.6 °F 26.8 °F 32.0 °F 94% 29.74 in 7.0 mi SW 8.1 mph - N/A   Clear
6:15 PM 33.8 °F 27.0 °F 32.0 °F 93% 29.75 in 7.0 mi SW 8.1 mph - N/A   Clear
6:35 PM 33.3 °F 27.9 °F 31.6 °F 94% 29.76 in 7.0 mi SW 5.8 mph - N/A   Clear
6:55 PM 32.5 °F 25.5 °F 31.3 °F 95% 29.76 in 7.0 mi SW 8.1 mph - N/A   Clear
7:15 PM 33.3 °F 25.7 °F 32.0 °F 95% 29.77 in 7.0 mi SW 9.2 mph - N/A   Clear
7:35 PM 33.4 °F 28.1 °F 31.8 °F 94% 29.78 in 7.0 mi SW 5.8 mph - N/A   Mostly Cloudy
7:55 PM 33.3 °F 27.1 °F 31.6 °F 94% 29.79 in 7.0 mi SW 6.9 mph - N/A   Scattered Clouds
8:15 PM 33.6 °F 26.8 °F 31.8 °F 93% 29.79 in 10.0 mi West 8.1 mph - N/A   Scattered Clouds
8:35 PM 34.0 °F 27.2 °F 31.6 °F 91% 29.80 in 10.0 mi WSW 8.1 mph - N/A   Clear
8:55 PM 33.8 °F 27.7 °F 31.5 °F 91% 29.81 in 10.0 mi West 6.9 mph - N/A   Clear
9:15 PM 33.1 °F 25.5 °F 31.1 °F 92% 29.82 in 10.0 mi West 9.2 mph - N/A   Clear
9:35 PM 33.3 °F 24.1 °F 31.1 °F 92% 29.83 in 10.0 mi WNW 12.7 mph - N/A   Clear
9:55 PM 33.1 °F 24.4 °F 30.4 °F 90% 29.84 in 10.0 mi WNW 11.5 mph 16.1 mph N/A   Scattered Clouds
10:15 PM 32.2 °F 24.4 °F 29.8 °F 91% 29.85 in 10.0 mi WNW 9.2 mph - N/A   Mostly Cloudy
10:35 PM 32.4 °F 23.5 °F 29.8 °F 90% 29.85 in 10.0 mi WNW 11.5 mph - N/A   Overcast
10:55 PM 32.5 °F 24.2 °F 29.8 °F 90% 29.86 in 10.0 mi WNW 10.4 mph - N/A   Overcast
11:15 PM 32.5 °F 23.7 °F 29.8 °F 90% 29.86 in 10.0 mi WNW 11.5 mph - N/A   Overcast
11:35 PM 32.5 °F 25.5 °F 30.0 °F 90% 29.86 in 10.0 mi WNW 8.1 mph - N/A   Overcast
11:55 PM 32.5 °F 22.7 °F 29.7 °F 89% 29.86 in 10.0 mi WNW 13.8 mph 23.0 mph N/A   Overcast